loading
|

STARLINK-32265, 60415

Orbit data source: Space-Track

STARLINK-32265, 60415 is a payload satellite owned by SpaceX/Seattle (US) in LEO that was launched on Sat, 10 Aug 2024 UTC via an FALCON 9 launch vehicle from the Air Force Eastern Test Range (AFETR). Payloads include a variety of satellites, spacecraft, and rockets equipped with specific instruments for various scientific and technological missions. These include communications satellites like Starlink; space stations such as the ISS; scientific satellites like the Hubble; Earth observation satellites from companies like Planet Labs, Umbra, and HawkEye 360; GPS; miniature CubeSats for education and research; and military/defense satellites.

Loading next visibility...
Loading greatness...
STARLINK-32265 details
Identifier
60415, 2024-141T
Orbit
LEO
Last TLE update8 hours ago
Origin
Flag of USSpaceX/Seattle (US)
ManufacturerSpaceX/Seattle
Mission statusOperational
MissionUnknown
Bus & MotorSTARLINK V2M, Unknown motor
Mass750 kg wet, ~700 kg dry
Launch date (UTC)
2024-08-10 (1 month ago)
Launch vehicle
FALCON 9
Launch site
Air Force Eastern Test Range (AFETR)
Object type
Payload
Rocket body
Debris
Radar Cross SectionLarge (>1 m²)

Expand to show TLE details & history

TLE from 8 hours ago
0 STARLINK-32265
1 60415U 24141T   24261.59066480  .00002218  00000-0  87000-4 0  9993
2 60415  53.1618 222.1103 0001102 131.6155 228.4941 15.30196832  7194
Epoch: 2024-09-17T14:10Z
Definitive object data (Epoch: 2024-09-17T14:10:33.438Z)
Latitude0.00002°
Longitude12.46786°
Altitude476.625 km
Speed7.628 km/s
True Right ascension14h 48m 26s
True Declination0° 00' 00"
Sunlit
Object was in daylight at TLE epoch
Predictive object data (real-time)
Latitude37.27096°
Longitude45.44624°
Altitude478.161 km
Speed7.631 km/s
Apparent Right ascension21h 14m 39s
Apparent Declination1° 16' 44"
Sunlit
Object is in daylight
Predictive observer data (real-time)
Local Sidereal Time15:02:27
Azimuth87.06° E
Elevation-1.519°
Doppler factor1
Orbital elements
Apogee476.236 km
Perigee474.725 km
Semi-major axis6,853.618 km
Eccentricity0.0001102
Inclination53.1618°
RAAN222.1103°
Arg. of periapsis131.6155°
True anomaly228.48464°
Mean anomaly228.4941°
Eccentric anomaly228.48937°
Mean motion3.82528 °/min
BSTAR0.000087
Period94.11 mins
No data available

STARLINK-32265 Visibility forecast

Observer location: 39.9160978°, -105.1181434

STARLINK-32265 is not visible in the next 10 days
Span
Click to sort rows by Start time (UTC) header in descending order
Start Az.
Max El. time (UTC)
Max El. Az.
Max El.
End time (UTC)
End Az.